Location: Village de las Huertas
(35.3014°N, 106.4095°W)
Time: 19:51:38
(UTC+00:00)

ISS - Visible Passes

Search period start: 18 January 2021 00:00
Search period end: 28 January 2021 00:00
Orbit: 418 x 419 km, 51.6° (Epoch: 19 January)

Date Brightness Start Highest point End Pass type
(mag) Time Alt. Az. Time Alt. Az. Time Alt. Az.
18 Jan -2.8 02:10:28 10° WSW 02:13:17 46° WNW 02:13:17 46° WNW visible
19 Jan -3.8 01:22:39 10° SW 01:26:00 86° SE 01:27:53 24° NE visible
20 Jan -1.6 02:12:44 10° W 02:15:15 19° NNW 02:15:21 19° NNW visible
21 Jan -2.2 01:24:23 10° W 01:27:22 29° NW 01:29:47 14° NNE visible
23 Jan -1.2 01:27:11 10° WNW 01:28:58 14° NNW 01:30:45 10° N visible
